TimeCST,TemperatureF,Dew PointF,Humidity,Sea Level PressureIn,VisibilityMPH,Wind Direction,Wind SpeedMPH,Gust SpeedMPH,PrecipitationIn,Events,Conditions,WindDirDegrees,DateUTC
12:53 AM,46.0,39.0,76,29.91,10.0,NNE,9.2,-,N/A,,Overcast,30,2012-12-07 06:53:00
1:25 AM,46.4,39.2,76,29.91,10.0,NNE,9.2,-,N/A,,Overcast,20,2012-12-07 07:25:00
1:53 AM,45.0,39.0,80,29.91,10.0,NNE,10.4,-,N/A,,Overcast,20,2012-12-07 07:53:00
2:53 AM,45.0,37.9,76,29.92,10.0,NNE,10.4,-,N/A,,Overcast,30,2012-12-07 08:53:00
3:53 AM,43.0,39.9,89,29.92,6.0,NNE,11.5,-,0.00,,Light Drizzle,30,2012-12-07 09:53:00
4:00 AM,42.8,39.2,87,29.91,6.0,NNE,8.1,-,0.00,,Light Drizzle,30,2012-12-07 10:00:00
4:11 AM,42.8,39.2,87,29.91,6.0,NE,8.1,-,0.00,,Light Drizzle,40,2012-12-07 10:11:00
4:53 AM,43.0,39.9,89,29.91,5.0,NE,9.2,-,0.00,,Light Drizzle,50,2012-12-07 10:53:00
5:53 AM,43.0,39.9,89,29.90,8.0,NE,6.9,-,0.00,,Overcast,50,2012-12-07 11:53:00
6:53 AM,43.0,39.9,89,29.91,8.0,NNE,5.8,-,N/A,,Overcast,20,2012-12-07 12:53:00
7:53 AM,43.0,39.9,89,29.91,7.0,NE,6.9,-,N/A,,Overcast,40,2012-12-07 13:53:00
8:53 AM,43.0,39.9,89,29.92,6.0,NNE,5.8,-,N/A,,Overcast,30,2012-12-07 14:53:00
9:53 AM,44.1,39.9,85,29.93,7.0,NE,3.5,-,N/A,,Overcast,40,2012-12-07 15:53:00
10:53 AM,44.1,39.9,85,29.92,8.0,North,5.8,-,N/A,,Overcast,10,2012-12-07 16:53:00
11:53 AM,45.0,39.9,82,29.89,9.0,NNE,6.9,-,N/A,,Overcast,30,2012-12-07 17:53:00
12:44 PM,46.4,39.2,76,29.86,10.0,ENE,4.6,-,N/A,,Overcast,70,2012-12-07 18:44:00
12:53 PM,46.0,39.9,79,29.87,10.0,Calm,Calm,-,N/A,,Overcast,0,2012-12-07 18:53:00
1:44 PM,46.4,39.2,76,29.86,9.0,Calm,Calm,-,N/A,,Overcast,0,2012-12-07 19:44:00
1:53 PM,46.0,39.9,79,29.87,9.0,Calm,Calm,-,N/A,,Overcast,0,2012-12-07 19:53:00
2:53 PM,46.9,39.9,77,29.86,10.0,North,3.5,-,N/A,,Overcast,350,2012-12-07 20:53:00
3:53 PM,46.0,39.0,76,29.88,10.0,North,5.8,-,N/A,,Overcast,360,2012-12-07 21:53:00
4:53 PM,46.0,39.0,76,29.89,10.0,North,4.6,-,N/A,,Overcast,10,2012-12-07 22:53:00
5:53 PM,46.0,37.9,73,29.89,10.0,NNE,5.8,-,N/A,,Overcast,20,2012-12-07 23:53:00
6:53 PM,44.6,37.4,76,29.90,10.0,NNE,5.8,-,N/A,,Overcast,30,2012-12-08 00:53:00
7:53 PM,45.0,37.9,76,29.91,10.0,NE,5.8,-,N/A,,Overcast,50,2012-12-08 01:53:00
8:53 PM,44.1,37.9,79,29.90,9.0,East,5.8,-,0.00,,Overcast,80,2012-12-08 02:53:00
9:53 PM,43.0,39.0,86,29.93,9.0,NNW,4.6,-,0.00,,Overcast,330,2012-12-08 03:53:00
10:53 PM,41.0,37.9,89,29.94,7.0,NW,3.5,-,N/A,,Overcast,310,2012-12-08 04:53:00
11:53 PM,39.9,37.9,93,29.96,4.0,NNW,4.6,-,N/A,,Mostly Cloudy,330,2012-12-08 05:53:00